Terminal Aerodrome Forecast
Issued by NWS Pittsburgh, PA

Current Version | Previous Version | Graphics & Text | Print | Product List | Glossary On
Versions: 1 2 3 4 5 6 7 8 9 10 11 12 13 14 15 16 17 18 19 20 21 22 23 24 25 26 27 28 29 30 31
000
FTUS41 KPBZ 251600 AAC
TAFPIT
TAF AMD
KPIT 251628Z 2516/2618 26010KT P6SM SCT030
     FM251800 31007KT P6SM BKN250
     FM260000 35003KT P6SM OVC100=

USA.gov is the U.S. government's official web portal to all federal, state and local government web resources and services.